Location: North Evanston
(42.0634°N, 87.6976°W)
Time: 13:41:58
(UTC+00:00)

Vanguard 3 - Pass Details

Date: 12 May 2026
Orbit: 507 x 3204 km, 33.3° (Epoch: 6 June)

Event Time Altitude Azimuth Distance (km) Brightness Sun altitude
Rises 02:25:17 0° 279° (W) 6,434 12.8 -13.9°
Reaches altitude 10° 02:31:01 10° 268° (W) 4,971 11.8 -14.7°
Maximum altitude 02:40:46 25° 222° (SW) 2,985 10.0 -16.0°
Enters shadow 02:46:38 13° 175° (S) 3,128 9.7 -16.8°
Drops below altitude 10° 02:47:23 10° 170° (S) 3,250 - -16.9°
Sets 02:50:15 0° 156° (SSE) 3,872 - -17.3°
